Time,TemperatureF,DewpointF,PressureIn,WindDirection,WindDirectionDegrees,WindSpeedMPH,WindSpeedGustMPH,Humidity,HourlyPrecipIn,Conditions,Clouds,dailyrainin,SoftwareType,DateUTC
2013-08-20 00:01:00,64.6,63.7,30.18,SE,143,0.0,0.0,97,0.00,,---,0.00,VWS V14.01,2013-08-20 04:01:00,
2013-08-20 00:06:00,64.6,63.7,30.18,SE,143,0.0,0.0,97,0.00,,---,0.00,VWS V14.01,2013-08-20 04:06:00,
2013-08-20 00:11:00,64.7,63.8,30.18,SE,143,0.0,0.0,97,0.00,,---,0.00,VWS V14.01,2013-08-20 04:11:00,
2013-08-20 00:16:00,64.8,63.9,30.18,SE,143,0.0,0.0,97,0.00,,---,0.00,VWS V14.01,2013-08-20 04:16:00,
2013-08-20 00:21:00,64.9,64.0,30.19,SE,143,0.0,0.0,97,0.00,,---,0.00,VWS V14.01,2013-08-20 04:21:00,
2013-08-20 00:26:00,65.0,64.1,30.18,SE,143,0.0,0.0,97,0.00,,---,0.00,VWS V14.01,2013-08-20 04:26:00,
2013-08-20 00:31:00,65.1,64.2,30.19,SE,143,0.0,0.0,97,0.00,,---,0.00,VWS V14.01,2013-08-20 04:31:00,
2013-08-20 00:36:00,65.3,64.7,30.19,SE,143,0.0,0.0,98,0.00,,---,0.00,VWS V14.01,2013-08-20 04:36:00,
2013-08-20 00:41:00,65.3,64.4,30.18,SE,143,0.0,0.0,97,0.00,,---,0.00,VWS V14.01,2013-08-20 04:41:00,
2013-08-20 00:46:00,65.4,64.8,30.19,SE,143,0.0,0.0,98,0.00,,---,0.00,VWS V14.01,2013-08-20 04:46:00,
2013-08-20 00:51:00,65.4,64.5,30.18,SE,143,0.0,0.0,97,0.00,,---,0.00,VWS V14.01,2013-08-20 04:51:00,
2013-08-20 00:56:00,65.4,64.5,30.18,SE,143,0.0,0.0,97,0.00,,---,0.00,VWS V14.01,2013-08-20 04:56:00,
2013-08-20 01:01:00,65.5,64.6,30.18,SE,143,0.0,0.0,97,0.00,,---,0.00,VWS V14.01,2013-08-20 05:01:00,
2013-08-20 01:06:00,65.5,64.6,30.18,SE,143,0.0,0.0,97,0.00,,---,0.00,VWS V14.01,2013-08-20 05:06:00,
2013-08-20 01:11:00,65.6,64.7,30.18,SE,143,0.0,0.0,97,0.00,,---,0.00,VWS V14.01,2013-08-20 05:11:00,
2013-08-20 01:16:00,65.6,64.7,30.18,SE,143,0.0,0.0,97,0.00,,---,0.00,VWS V14.01,2013-08-20 05:16:00,
2013-08-20 01:21:00,65.6,64.7,30.18,SE,143,0.0,0.0,97,0.00,,---,0.00,VWS V14.01,2013-08-20 05:21:00,
2013-08-20 01:26:00,65.7,64.8,30.18,SE,143,0.0,0.0,97,0.00,,---,0.00,VWS V14.01,2013-08-20 05:26:00,
2013-08-20 01:31:00,65.7,64.8,30.18,SE,143,0.0,0.0,97,0.00,,---,0.00,VWS V14.01,2013-08-20 05:31:00,
2013-08-20 01:36:00,65.8,64.9,30.18,SE,143,0.0,0.0,97,0.00,,---,0.00,VWS V14.01,2013-08-20 05:36:00,
2013-08-20 01:41:00,65.8,65.2,30.18,SE,143,0.0,0.0,98,0.00,,---,0.00,VWS V14.01,2013-08-20 05:41:00,
2013-08-20 01:46:00,65.8,64.9,30.18,SE,143,0.0,0.0,97,0.00,,---,0.00,VWS V14.01,2013-08-20 05:46:00,
2013-08-20 01:51:00,65.8,64.9,30.17,SE,143,0.0,0.0,97,0.00,,---,0.00,VWS V14.01,2013-08-20 05:51:00,
2013-08-20 01:56:00,65.8,64.9,30.17,SE,143,0.0,0.0,97,0.00,,---,0.00,VWS V14.01,2013-08-20 05:56:00,
2013-08-20 02:01:00,65.9,65.3,30.17,SE,143,0.0,0.0,98,0.00,,---,0.00,VWS V14.01,2013-08-20 06:01:00,
2013-08-20 02:06:00,65.9,65.3,30.17,SE,143,0.0,0.0,98,0.00,,---,0.00,VWS V14.01,2013-08-20 06:06:00,
2013-08-20 02:11:00,65.9,65.3,30.17,SE,143,0.0,0.0,98,0.00,,---,0.00,VWS V14.01,2013-08-20 06:11:00,
2013-08-20 02:16:00,66.0,65.4,30.17,SE,143,0.0,0.0,98,0.00,,---,0.00,VWS V14.01,2013-08-20 06:16:00,
2013-08-20 02:21:00,66.0,65.4,30.17,SE,143,0.0,0.0,98,0.00,,---,0.00,VWS V14.01,2013-08-20 06:21:00,
2013-08-20 02:26:00,66.0,65.4,30.17,SE,143,0.0,0.0,98,0.00,,---,0.00,VWS V14.01,2013-08-20 06:26:00,
2013-08-20 02:31:00,66.0,65.4,30.17,SE,143,0.0,0.0,98,0.00,,---,0.00,VWS V14.01,2013-08-20 06:31:00,
2013-08-20 02:36:00,66.0,65.4,30.17,SE,143,0.0,0.0,98,0.00,,---,0.00,VWS V14.01,2013-08-20 06:36:00,
2013-08-20 02:41:00,66.0,65.4,30.17,SE,143,0.0,0.0,98,0.00,,---,0.00,VWS V14.01,2013-08-20 06:41:00,
2013-08-20 02:46:00,65.9,65.0,30.17,SE,143,0.0,0.0,97,0.00,,---,0.00,VWS V14.01,2013-08-20 06:46:00,
2013-08-20 02:51:00,65.8,64.9,30.16,SE,143,0.0,0.0,97,0.00,,---,0.00,VWS V14.01,2013-08-20 06:51:00,
2013-08-20 02:56:00,65.7,64.8,30.17,SE,143,0.0,0.0,97,0.00,,---,0.00,VWS V14.01,2013-08-20 06:56:00,
2013-08-20 03:01:00,65.6,64.7,30.17,SE,143,0.0,0.0,97,0.00,,---,0.00,VWS V14.01,2013-08-20 07:01:00,
2013-08-20 03:06:00,65.4,64.5,30.17,SE,143,0.0,0.0,97,0.00,,---,0.00,VWS V14.01,2013-08-20 07:06:00,
2013-08-20 03:11:00,65.3,64.4,30.17,SE,143,0.0,0.0,97,0.00,,---,0.00,VWS V14.01,2013-08-20 07:11:00,
2013-08-20 03:16:00,65.2,64.3,30.17,SE,143,0.0,0.0,97,0.00,,---,0.00,VWS V14.01,2013-08-20 07:16:00,
2013-08-20 03:21:00,65.1,64.2,30.17,SE,143,0.0,0.0,97,0.00,,---,0.00,VWS V14.01,2013-08-20 07:21:00,
2013-08-20 03:26:00,65.0,64.1,30.17,SE,143,0.0,0.0,97,0.00,,---,0.00,VWS V14.01,2013-08-20 07:26:00,
2013-08-20 03:31:00,65.0,64.1,30.17,SE,143,0.0,0.0,97,0.00,,---,0.00,VWS V14.01,2013-08-20 07:31:00,
2013-08-20 03:36:00,64.9,64.0,30.17,SE,143,0.0,0.0,97,0.00,,---,0.00,VWS V14.01,2013-08-20 07:36:00,
2013-08-20 03:41:00,64.8,63.9,30.17,SE,143,0.0,0.0,97,0.00,,---,0.00,VWS V14.01,2013-08-20 07:41:00,
2013-08-20 03:46:00,64.9,64.0,30.17,SE,143,0.0,0.0,97,0.00,,---,0.00,VWS V14.01,2013-08-20 07:46:00,
2013-08-20 03:51:00,64.9,64.0,30.17,SE,143,0.0,0.0,97,0.00,,---,0.00,VWS V14.01,2013-08-20 07:51:00,
2013-08-20 03:56:00,64.8,63.9,30.17,SE,143,0.0,0.0,97,0.00,,---,0.00,VWS V14.01,2013-08-20 07:56:00,
2013-08-20 04:01:00,64.8,63.9,30.17,SE,143,0.0,0.0,97,0.00,,---,0.00,VWS V14.01,2013-08-20 08:01:00,
2013-08-20 04:06:00,65.0,64.4,30.17,SE,143,0.0,0.0,98,0.00,,---,0.00,VWS V14.01,2013-08-20 08:06:00,
2013-08-20 04:11:00,65.1,64.5,30.17,SE,143,0.0,0.0,98,0.00,,---,0.00,VWS V14.01,2013-08-20 08:11:00,
2013-08-20 04:16:00,65.1,64.5,30.17,SE,143,0.0,0.0,98,0.00,,---,0.00,VWS V14.01,2013-08-20 08:16:00,
2013-08-20 04:21:00,65.2,64.6,30.16,SE,143,0.0,0.0,98,0.00,,---,0.00,VWS V14.01,2013-08-20 08:21:00,
2013-08-20 04:26:00,65.2,64.6,30.16,SE,143,0.0,0.0,98,0.00,,---,0.00,VWS V14.01,2013-08-20 08:26:00,
2013-08-20 04:31:00,65.3,64.7,30.16,SE,143,0.0,0.0,98,0.00,,---,0.00,VWS V14.01,2013-08-20 08:31:00,
2013-08-20 04:36:00,65.4,64.8,30.17,SE,143,0.0,0.0,98,0.00,,---,0.00,VWS V14.01,2013-08-20 08:36:00,
2013-08-20 04:41:00,65.6,65.0,30.17,SE,143,0.0,0.0,98,0.00,,---,0.00,VWS V14.01,2013-08-20 08:41:00,
2013-08-20 04:46:00,65.5,64.9,30.17,SE,143,0.0,0.0,98,0.00,,---,0.00,VWS V14.01,2013-08-20 08:46:00,
2013-08-20 04:51:00,65.4,64.8,30.16,SE,143,0.0,0.0,98,0.00,,---,0.00,VWS V14.01,2013-08-20 08:51:00,
2013-08-20 04:56:00,65.4,64.8,30.16,SE,143,0.0,0.0,98,0.00,,---,0.00,VWS V14.01,2013-08-20 08:56:00,
2013-08-20 05:01:00,65.4,64.8,30.16,SE,143,0.0,0.0,98,0.00,,---,0.00,VWS V14.01,2013-08-20 09:01:00,
2013-08-20 05:06:00,65.4,64.8,30.16,SE,143,0.0,0.0,98,0.00,,---,0.00,VWS V14.01,2013-08-20 09:06:00,
2013-08-20 05:11:00,65.3,64.7,30.16,SE,143,0.0,0.0,98,0.00,,---,0.00,VWS V14.01,2013-08-20 09:11:00,
2013-08-20 05:16:00,65.3,64.7,30.16,SE,143,0.0,0.0,98,0.00,,---,0.00,VWS V14.01,2013-08-20 09:16:00,
2013-08-20 05:21:00,65.3,64.7,30.16,SE,143,0.0,0.0,98,0.00,,---,0.00,VWS V14.01,2013-08-20 09:21:00,
2013-08-20 05:26:00,65.2,64.6,30.16,SE,143,0.0,0.0,98,0.00,,---,0.00,VWS V14.01,2013-08-20 09:26:00,
2013-08-20 05:31:00,65.2,64.6,30.17,SE,143,0.0,0.0,98,0.00,,---,0.00,VWS V14.01,2013-08-20 09:31:00,
2013-08-20 05:36:00,65.1,64.5,30.16,SE,143,0.0,0.0,98,0.00,,---,0.00,VWS V14.01,2013-08-20 09:36:00,
2013-08-20 05:41:00,64.9,64.3,30.16,SE,143,0.0,0.0,98,0.00,,---,0.00,VWS V14.01,2013-08-20 09:41:00,
2013-08-20 05:46:00,64.8,64.2,30.17,SE,143,0.0,0.0,98,0.00,,---,0.00,VWS V14.01,2013-08-20 09:46:00,
2013-08-20 05:51:00,64.8,64.2,30.17,SE,143,0.0,0.0,98,0.00,,---,0.00,VWS V14.01,2013-08-20 09:51:00,
2013-08-20 05:56:00,64.8,64.2,30.17,SE,143,0.0,0.0,98,0.00,,---,0.00,VWS V14.01,2013-08-20 09:56:00,
2013-08-20 06:01:00,64.8,64.2,30.17,SE,143,0.0,0.0,98,0.00,,---,0.00,VWS V14.01,2013-08-20 10:01:00,
2013-08-20 06:06:00,64.7,64.1,30.17,SE,143,0.0,0.0,98,0.00,,---,0.00,VWS V14.01,2013-08-20 10:06:00,
2013-08-20 06:11:00,64.6,64.0,30.18,SE,143,0.0,0.0,98,0.00,,---,0.00,VWS V14.01,2013-08-20 10:11:00,
2013-08-20 06:16:00,64.4,63.5,30.18,SE,143,0.0,0.0,97,0.00,,---,0.00,VWS V14.01,2013-08-20 10:16:00,
2013-08-20 06:21:00,64.3,63.4,30.18,SE,143,0.0,0.0,97,0.00,,---,0.00,VWS V14.01,2013-08-20 10:21:00,
2013-08-20 06:26:00,64.1,63.5,30.18,SE,143,0.0,0.0,98,0.00,,---,0.00,VWS V14.01,2013-08-20 10:26:00,
2013-08-20 06:31:00,64.1,63.5,30.18,SE,143,0.0,0.0,98,0.00,,---,0.00,VWS V14.01,2013-08-20 10:31:00,
2013-08-20 06:36:00,64.1,63.5,30.18,WNW,286,0.0,0.0,98,0.00,,---,0.00,VWS V14.01,2013-08-20 10:36:00,
2013-08-20 06:41:00,64.1,63.5,30.18,WNW,298,0.0,0.0,98,0.00,,---,0.00,VWS V14.01,2013-08-20 10:41:00,
2013-08-20 06:46:00,64.0,63.4,30.18,WNW,298,0.0,0.0,98,0.00,,---,0.00,VWS V14.01,2013-08-20 10:46:00,
2013-08-20 06:51:00,63.8,62.9,30.19,WNW,298,0.0,0.0,97,0.00,,---,0.00,VWS V14.01,2013-08-20 10:51:00,
2013-08-20 06:56:00,63.7,62.8,30.19,SSE,152,0.0,0.0,97,0.00,,---,0.00,VWS V14.01,2013-08-20 10:56:00,
2013-08-20 07:01:00,63.7,63.1,30.19,SSE,152,0.0,0.0,98,0.00,,---,0.00,VWS V14.01,2013-08-20 11:01:00,
2013-08-20 07:06:00,63.7,63.1,30.20,SSE,152,0.0,0.0,98,0.00,,---,0.00,VWS V14.01,2013-08-20 11:06:00,
2013-08-20 07:11:00,63.7,63.1,30.20,SSE,152,0.0,0.0,98,0.00,,---,0.00,VWS V14.01,2013-08-20 11:11:00,
2013-08-20 07:16:00,63.7,63.1,30.20,SSE,152,0.0,0.0,98,0.00,,---,0.00,VWS V14.01,2013-08-20 11:16:00,
2013-08-20 07:21:00,63.7,63.1,30.20,SSE,152,0.0,0.0,98,0.00,,---,0.00,VWS V14.01,2013-08-20 11:21:00,
2013-08-20 07:26:00,63.8,63.2,30.20,SSE,152,0.0,0.0,98,0.00,,---,0.00,VWS V14.01,2013-08-20 11:26:00,
2013-08-20 07:31:00,63.8,63.2,30.20,SSE,152,0.0,0.0,98,0.00,,---,0.00,VWS V14.01,2013-08-20 11:31:00,
2013-08-20 07:36:00,63.9,63.3,30.20,SSE,152,0.0,0.0,98,0.00,,---,0.00,VWS V14.01,2013-08-20 11:36:00,
2013-08-20 07:41:00,64.1,63.5,30.21,SSE,152,0.0,0.0,98,0.00,,---,0.00,VWS V14.01,2013-08-20 11:41:00,
2013-08-20 07:46:00,64.3,63.7,30.21,SSE,152,0.0,0.0,98,0.00,,---,0.00,VWS V14.01,2013-08-20 11:46:00,
2013-08-20 07:51:00,64.4,63.8,30.21,SSE,152,0.0,0.0,98,0.00,,---,0.00,VWS V14.01,2013-08-20 11:51:00,
2013-08-20 07:56:00,64.5,63.9,30.21,SSE,152,0.0,0.0,98,0.00,,---,0.00,VWS V14.01,2013-08-20 11:56:00,
2013-08-20 08:01:00,64.6,64.0,30.21,SSE,152,0.0,0.0,98,0.00,,---,0.00,VWS V14.01,2013-08-20 12:01:00,
2013-08-20 08:06:00,64.8,64.2,30.21,SSE,152,0.0,0.0,98,0.00,,---,0.00,VWS V14.01,2013-08-20 12:06:00,
2013-08-20 08:11:00,65.1,64.5,30.21,SSE,152,0.0,0.0,98,0.00,,---,0.00,VWS V14.01,2013-08-20 12:11:00,
2013-08-20 08:16:00,65.3,64.7,30.22,SSE,152,0.0,0.0,98,0.00,,---,0.00,VWS V14.01,2013-08-20 12:16:00,
2013-08-20 08:21:00,65.6,65.0,30.22,SSE,152,0.0,0.0,98,0.00,,---,0.00,VWS V14.01,2013-08-20 12:21:00,
2013-08-20 08:26:00,65.8,65.2,30.22,SSE,152,0.0,0.0,98,0.00,,---,0.00,VWS V14.01,2013-08-20 12:26:00,
2013-08-20 08:31:00,66.0,65.4,30.22,SSE,152,0.0,0.0,98,0.00,,---,0.00,VWS V14.01,2013-08-20 12:31:00,
2013-08-20 08:36:00,66.3,65.7,30.21,South,177,0.0,0.0,98,0.00,,---,0.00,VWS V14.01,2013-08-20 12:36:00,
2013-08-20 08:41:00,66.6,66.0,30.22,South,169,0.0,0.0,98,0.00,,---,0.00,VWS V14.01,2013-08-20 12:41:00,
2013-08-20 08:46:00,67.2,66.6,30.22,SSE,155,0.0,0.0,98,0.00,,---,0.00,VWS V14.01,2013-08-20 12:46:00,
2013-08-20 08:51:00,67.5,66.9,30.22,SSE,153,0.0,0.0,98,0.00,,---,0.00,VWS V14.01,2013-08-20 12:51:00,
2013-08-20 08:56:00,67.9,67.3,30.22,SSE,153,0.0,0.0,98,0.00,,---,0.00,VWS V14.01,2013-08-20 12:56:00,
2013-08-20 09:01:00,68.5,67.9,30.22,SSE,153,0.0,0.0,98,0.00,,---,0.00,VWS V14.01,2013-08-20 13:01:00,
2013-08-20 09:06:00,68.8,68.2,30.22,SSE,153,0.0,0.0,98,0.00,,---,0.00,VWS V14.01,2013-08-20 13:06:00,
2013-08-20 09:11:00,69.4,68.8,30.22,SW,235,0.0,0.0,98,0.00,,---,0.00,VWS V14.01,2013-08-20 13:11:00,
2013-08-20 09:16:00,69.8,68.9,30.22,North,358,0.0,3.0,97,0.00,,---,0.00,VWS V14.01,2013-08-20 13:16:00,
2013-08-20 09:21:00,70.1,68.3,30.22,NNW,335,0.0,5.0,94,0.00,,---,0.00,VWS V14.01,2013-08-20 13:21:00,
2013-08-20 09:26:00,70.6,68.5,30.22,NNW,343,2.0,5.0,93,0.00,,---,0.00,VWS V14.01,2013-08-20 13:26:00,
2013-08-20 09:31:00,71.0,68.6,30.22,North,352,0.0,2.0,92,0.00,,---,0.00,VWS V14.01,2013-08-20 13:31:00,
2013-08-20 09:36:00,71.6,68.8,30.22,NW,322,1.0,3.0,91,0.00,,---,0.00,VWS V14.01,2013-08-20 13:36:00,
2013-08-20 09:41:00,72.0,69.2,30.22,NW,322,1.0,3.0,91,0.00,,---,0.00,VWS V14.01,2013-08-20 13:41:00,
2013-08-20 09:45:00,72.4,69.3,30.22,NW,318,0.0,3.0,90,0.00,,---,0.00,VWS V14.01,2013-08-20 13:45:00,
2013-08-20 09:50:00,72.6,68.8,30.22,North,358,3.0,3.0,88,0.00,,---,0.00,VWS V14.01,2013-08-20 13:50:00,
2013-08-20 09:55:00,72.9,69.5,30.23,North,9,1.0,3.0,89,0.00,,---,0.00,VWS V14.01,2013-08-20 13:55:00,
2013-08-20 10:00:00,73.2,69.4,30.22,North,8,2.0,4.0,88,0.00,,---,0.00,VWS V14.01,2013-08-20 14:00:00,
2013-08-20 10:05:00,73.6,69.8,30.23,North,8,2.0,4.0,88,0.00,,---,0.00,VWS V14.01,2013-08-20 14:05:00,
2013-08-20 10:10:00,74.0,70.6,30.23,North,8,0.0,4.0,89,0.00,,---,0.00,VWS V14.01,2013-08-20 14:10:00,
2013-08-20 10:15:00,74.5,70.7,30.23,West,264,1.0,4.0,88,0.00,,---,0.00,VWS V14.01,2013-08-20 14:15:00,
2013-08-20 10:20:00,74.7,70.2,30.23,WSW,258,0.0,4.0,86,0.00,,---,0.00,VWS V14.01,2013-08-20 14:20:00,
2013-08-20 10:25:00,74.9,69.7,30.23,SSW,192,1.0,4.0,84,0.00,,---,0.00,VWS V14.01,2013-08-20 14:25:00,
2013-08-20 10:30:00,75.0,69.8,30.24,SW,218,0.0,1.0,84,0.00,,---,0.00,VWS V14.01,2013-08-20 14:30:00,
2013-08-20 10:35:00,75.1,69.9,30.24,SSW,210,1.0,3.0,84,0.00,,---,0.00,VWS V14.01,2013-08-20 14:35:00,
2013-08-20 10:40:00,74.8,70.0,30.24,SE,137,1.0,3.0,85,0.00,,---,0.00,VWS V14.01,2013-08-20 14:40:00,
2013-08-20 10:45:00,74.5,69.7,30.24,South,173,1.0,2.0,85,0.00,,---,0.00,VWS V14.01,2013-08-20 14:45:00,
2013-08-20 10:50:00,74.6,70.1,30.24,WSW,237,1.0,3.0,86,0.00,,---,0.00,VWS V14.01,2013-08-20 14:50:00,
2013-08-20 10:55:00,75.0,70.5,30.24,SW,214,1.0,3.0,86,0.00,,---,0.00,VWS V14.01,2013-08-20 14:55:00,
2013-08-20 11:00:00,75.4,70.2,30.24,SSE,160,3.0,3.0,84,0.00,,---,0.00,VWS V14.01,2013-08-20 15:00:00,
2013-08-20 11:05:00,75.5,70.3,30.24,SW,223,0.0,3.0,84,0.00,,---,0.00,VWS V14.01,2013-08-20 15:05:00,
2013-08-20 11:10:00,75.8,70.3,30.24,ESE,113,3.0,3.0,83,0.00,,---,0.00,VWS V14.01,2013-08-20 15:10:00,
2013-08-20 11:15:00,76.0,70.5,30.24,SE,135,1.0,3.0,83,0.00,,---,0.00,VWS V14.01,2013-08-20 15:15:00,
2013-08-20 11:20:00,76.3,71.1,30.24,SE,143,1.0,3.0,84,0.00,,---,0.00,VWS V14.01,2013-08-20 15:20:00,
2013-08-20 11:25:00,76.3,71.1,30.24,SE,137,3.0,5.0,84,0.00,,---,0.00,VWS V14.01,2013-08-20 15:25:00,
2013-08-20 11:30:00,76.2,70.7,30.24,SSW,194,0.0,2.0,83,0.00,,---,0.00,VWS V14.01,2013-08-20 15:30:00,
2013-08-20 11:35:00,76.3,71.1,30.25,SSW,210,2.0,5.0,84,0.00,,---,0.00,VWS V14.01,2013-08-20 15:35:00,
2013-08-20 11:40:00,76.5,70.6,30.25,SSW,193,0.0,5.0,82,0.00,,---,0.00,VWS V14.01,2013-08-20 15:40:00,
2013-08-20 11:45:00,76.6,71.1,30.24,South,175,1.0,2.0,83,0.00,,---,0.00,VWS V14.01,2013-08-20 15:45:00,
2013-08-20 11:50:00,76.9,71.0,30.24,SE,137,1.0,3.0,82,0.00,,---,0.00,VWS V14.01,2013-08-20 15:50:00,
2013-08-20 11:55:00,77.0,70.7,30.24,SE,137,0.0,3.0,81,0.00,,---,0.00,VWS V14.01,2013-08-20 15:55:00,
2013-08-20 12:00:00,77.4,71.1,30.25,SSW,206,3.0,3.0,81,0.00,,---,0.00,VWS V14.01,2013-08-20 16:00:00,
2013-08-20 12:05:00,77.8,71.1,30.25,ESE,123,1.0,5.0,80,0.00,,---,0.00,VWS V14.01,2013-08-20 16:05:00,
2013-08-20 12:10:00,77.9,71.6,30.24,South,179,1.0,5.0,81,0.00,,---,0.00,VWS V14.01,2013-08-20 16:10:00,
2013-08-20 12:15:00,78.3,71.6,30.24,South,184,1.0,4.0,80,0.00,,---,0.00,VWS V14.01,2013-08-20 16:15:00,
2013-08-20 12:20:00,78.4,71.3,30.24,SSE,150,0.0,6.0,79,0.01,,---,0.01,VWS V14.01,2013-08-20 16:20:00,
2013-08-20 12:25:00,78.2,70.8,30.24,ESE,112,4.0,7.0,78,0.01,,---,0.01,VWS V14.01,2013-08-20 16:25:00,
2013-08-20 12:30:00,78.0,71.0,30.24,SSE,162,2.0,4.0,79,0.01,,---,0.01,VWS V14.01,2013-08-20 16:30:00,
2013-08-20 12:35:00,78.1,71.1,30.24,SE,131,0.0,4.0,79,0.01,,---,0.01,VWS V14.01,2013-08-20 16:35:00,
2013-08-20 12:40:00,78.3,72.0,30.24,SE,136,2.0,4.0,81,0.01,,---,0.01,VWS V14.01,2013-08-20 16:40:00,
2013-08-20 12:45:00,78.4,72.1,30.24,SSE,167,0.0,1.0,81,0.01,,---,0.01,VWS V14.01,2013-08-20 16:45:00,
2013-08-20 12:50:00,78.5,71.8,30.24,SSW,201,0.0,3.0,80,0.01,,---,0.01,VWS V14.01,2013-08-20 16:50:00,
2013-08-20 12:55:00,78.6,71.2,30.24,SSE,163,2.0,4.0,78,0.01,,---,0.01,VWS V14.01,2013-08-20 16:55:00,
2013-08-20 13:00:00,78.7,71.6,30.24,SSW,210,0.0,0.0,79,0.01,,---,0.01,VWS V14.01,2013-08-20 17:00:00,
2013-08-20 13:05:00,79.0,71.6,30.24,SE,135,1.0,3.0,78,0.01,,---,0.01,VWS V14.01,2013-08-20 17:05:00,
2013-08-20 13:10:00,79.0,70.4,30.24,SE,130,2.0,3.0,75,0.01,,---,0.01,VWS V14.01,2013-08-20 17:10:00,
2013-08-20 13:15:00,78.9,71.1,30.24,SE,137,0.0,1.0,77,0.01,,---,0.01,VWS V14.01,2013-08-20 17:15:00,
2013-08-20 13:20:00,78.8,71.4,30.24,NW,319,0.0,2.0,78,0.01,,---,0.01,VWS V14.01,2013-08-20 17:20:00,
2013-08-20 13:25:00,78.7,71.3,30.24,NW,320,0.0,2.0,78,0.01,,---,0.01,VWS V14.01,2013-08-20 17:25:00,
2013-08-20 13:30:00,79.1,71.3,30.24,SE,143,0.0,3.0,77,0.00,,---,0.01,VWS V14.01,2013-08-20 17:30:00,
2013-08-20 13:35:00,79.7,72.6,30.24,ESE,112,2.0,3.0,79,0.00,,---,0.01,VWS V14.01,2013-08-20 17:35:00,
2013-08-20 13:40:00,80.1,72.2,30.23,NNE,18,0.0,5.0,77,0.00,,---,0.01,VWS V14.01,2013-08-20 17:40:00,
2013-08-20 13:45:00,79.9,70.5,30.23,NNE,23,0.0,0.0,73,0.00,,---,0.01,VWS V14.01,2013-08-20 17:45:00,
2013-08-20 13:50:00,80.0,70.6,30.23,SE,132,0.0,2.0,73,0.00,,---,0.01,VWS V14.01,2013-08-20 17:50:00,
2013-08-20 13:55:00,80.2,70.8,30.23,South,179,1.0,3.0,73,0.00,,---,0.01,VWS V14.01,2013-08-20 17:55:00,
2013-08-20 14:00:00,80.3,71.3,30.23,South,185,0.0,1.0,74,0.00,,---,0.01,VWS V14.01,2013-08-20 18:00:00,
2013-08-20 14:05:00,80.3,72.1,30.23,SSE,153,0.0,3.0,76,0.00,,---,0.01,VWS V14.01,2013-08-20 18:05:00,
2013-08-20 14:10:00,80.3,72.1,30.23,SSE,151,0.0,3.0,76,0.00,,---,0.01,VWS V14.01,2013-08-20 18:10:00,
2013-08-20 14:15:00,80.3,72.1,30.23,SE,130,2.0,3.0,76,0.00,,---,0.01,VWS V14.01,2013-08-20 18:15:00,
2013-08-20 14:20:00,80.2,71.6,30.23,South,173,2.0,3.0,75,0.00,,---,0.01,VWS V14.01,2013-08-20 18:20:00,
2013-08-20 14:25:00,79.8,71.2,30.23,South,171,0.0,3.0,75,0.00,,---,0.01,VWS V14.01,2013-08-20 18:25:00,
2013-08-20 14:30:00,79.8,71.9,30.23,SE,141,1.0,1.0,77,0.00,,---,0.01,VWS V14.01,2013-08-20 18:30:00,
2013-08-20 14:35:00,79.7,71.1,30.22,SSW,195,0.0,3.0,75,0.00,,---,0.01,VWS V14.01,2013-08-20 18:35:00,
2013-08-20 14:40:00,79.7,71.5,30.22,SE,146,1.0,4.0,76,0.00,,---,0.01,VWS V14.01,2013-08-20 18:40:00,
2013-08-20 14:45:00,79.8,71.2,30.22,SE,136,0.0,2.0,75,0.00,,---,0.01,VWS V14.01,2013-08-20 18:45:00,
2013-08-20 14:50:00,79.8,71.6,30.22,SE,142,2.0,5.0,76,0.00,,---,0.01,VWS V14.01,2013-08-20 18:50:00,
2013-08-20 14:55:00,79.6,71.4,30.22,SSE,148,1.0,5.0,76,0.00,,---,0.01,VWS V14.01,2013-08-20 18:55:00,
2013-08-20 15:00:00,79.4,71.2,30.22,SSE,162,1.0,1.0,76,0.00,,---,0.01,VWS V14.01,2013-08-20 19:00:00,
2013-08-20 15:05:00,79.6,72.5,30.21,ESE,111,2.0,3.0,79,0.00,,---,0.01,VWS V14.01,2013-08-20 19:05:00,
2013-08-20 15:10:00,79.9,72.4,30.21,SE,139,2.0,3.0,78,0.00,,---,0.01,VWS V14.01,2013-08-20 19:10:00,
2013-08-20 15:15:00,80.0,72.2,30.21,ESE,116,2.0,5.0,77,0.00,,---,0.01,VWS V14.01,2013-08-20 19:15:00,
2013-08-20 15:20:00,80.1,72.2,30.21,SW,231,1.0,5.0,77,0.00,,---,0.01,VWS V14.01,2013-08-20 19:20:00,
2013-08-20 15:25:00,80.3,71.3,30.21,South,170,0.0,5.0,74,0.00,,---,0.01,VWS V14.01,2013-08-20 19:25:00,
2013-08-20 15:30:00,80.7,72.0,30.21,SE,135,0.0,0.0,75,0.00,,---,0.01,VWS V14.01,2013-08-20 19:30:00,
2013-08-20 15:35:00,81.2,72.5,30.21,SE,135,0.0,5.0,75,0.00,,---,0.01,VWS V14.01,2013-08-20 19:35:00,
2013-08-20 15:40:00,81.3,71.8,30.20,SE,138,2.0,7.0,73,0.00,,---,0.01,VWS V14.01,2013-08-20 19:40:00,
2013-08-20 15:45:00,81.2,72.5,30.20,ESE,120,3.0,3.0,75,0.00,,---,0.01,VWS V14.01,2013-08-20 19:45:00,
2013-08-20 15:50:00,81.4,72.3,30.20,SSE,156,2.0,5.0,74,0.00,,---,0.01,VWS V14.01,2013-08-20 19:50:00,
2013-08-20 15:55:00,81.2,71.7,30.19,SE,139,3.0,5.0,73,0.00,,---,0.01,VWS V14.01,2013-08-20 19:55:00,
2013-08-20 16:00:00,81.0,71.5,30.19,SSE,156,0.0,2.0,73,0.00,,---,0.01,VWS V14.01,2013-08-20 20:00:00,
2013-08-20 16:05:00,80.7,71.7,30.19,SE,137,1.0,3.0,74,0.00,,---,0.01,VWS V14.01,2013-08-20 20:05:00,
2013-08-20 16:10:00,80.4,71.4,30.19,ESE,104,0.0,3.0,74,0.00,,---,0.01,VWS V14.01,2013-08-20 20:10:00,
2013-08-20 16:15:00,80.2,70.8,30.19,NE,52,0.0,2.0,73,0.00,,---,0.01,VWS V14.01,2013-08-20 20:15:00,
2013-08-20 16:20:00,80.4,71.8,30.18,ESE,123,0.0,2.0,75,0.00,,---,0.01,VWS V14.01,2013-08-20 20:20:00,
2013-08-20 16:25:00,80.9,72.2,30.18,ENE,76,0.0,4.0,75,0.00,,---,0.01,VWS V14.01,2013-08-20 20:25:00,
2013-08-20 16:30:00,81.0,71.9,30.18,SSE,158,0.0,1.0,74,0.00,,---,0.01,VWS V14.01,2013-08-20 20:30:00,
2013-08-20 16:35:00,80.9,71.4,30.18,SE,142,0.0,2.0,73,0.00,,---,0.01,VWS V14.01,2013-08-20 20:35:00,
2013-08-20 16:40:00,80.8,72.5,30.18,South,172,0.0,2.0,76,0.00,,---,0.01,VWS V14.01,2013-08-20 20:40:00,
2013-08-20 16:45:00,80.8,71.7,30.18,SSE,158,0.0,1.0,74,0.00,,---,0.01,VWS V14.01,2013-08-20 20:45:00,
2013-08-20 16:50:00,80.6,71.9,30.18,SSE,158,0.0,2.0,75,0.00,,---,0.01,VWS V14.01,2013-08-20 20:50:00,
2013-08-20 16:55:00,80.7,70.8,30.18,SSE,158,0.0,2.0,72,0.00,,---,0.01,VWS V14.01,2013-08-20 20:55:00,
2013-08-20 17:00:00,80.7,70.8,30.18,SE,135,0.0,0.0,72,0.00,,---,0.01,VWS V14.01,2013-08-20 21:00:00,
2013-08-20 17:05:00,80.8,71.7,30.17,South,176,2.0,2.0,74,0.00,,---,0.01,VWS V14.01,2013-08-20 21:05:00,
2013-08-20 17:10:00,80.8,71.3,30.17,SE,145,0.0,2.0,73,0.00,,---,0.01,VWS V14.01,2013-08-20 21:10:00,
2013-08-20 17:15:00,80.8,71.3,30.17,SE,145,0.0,0.0,73,0.00,,---,0.01,VWS V14.01,2013-08-20 21:15:00,
2013-08-20 17:20:00,80.7,72.0,30.18,SE,145,0.0,1.0,75,0.00,,---,0.01,VWS V14.01,2013-08-20 21:20:00,
2013-08-20 17:25:00,80.5,71.8,30.18,SE,145,0.0,1.0,75,0.00,,---,0.01,VWS V14.01,2013-08-20 21:25:00,
2013-08-20 17:30:00,80.3,72.4,30.18,SE,145,0.0,0.0,77,0.00,,---,0.01,VWS V14.01,2013-08-20 21:30:00,
2013-08-20 17:35:00,80.2,72.3,30.18,South,169,0.0,1.0,77,0.00,,---,0.01,VWS V14.01,2013-08-20 21:35:00,
2013-08-20 17:40:00,80.2,71.2,30.18,SSE,164,0.0,2.0,74,0.00,,---,0.01,VWS V14.01,2013-08-20 21:40:00,
2013-08-20 17:45:00,80.3,71.7,30.18,SSE,164,0.0,0.0,75,0.00,,---,0.01,VWS V14.01,2013-08-20 21:45:00,
2013-08-20 17:50:00,80.4,71.8,30.18,SSE,164,0.0,0.0,75,0.00,,---,0.01,VWS V14.01,2013-08-20 21:50:00,
2013-08-20 17:55:00,80.6,73.1,30.17,SSE,164,0.0,1.0,78,0.00,,---,0.01,VWS V14.01,2013-08-20 21:55:00,
2013-08-20 18:00:00,80.6,72.3,30.18,SSE,164,1.0,2.0,76,0.00,,---,0.01,VWS V14.01,2013-08-20 22:00:00,
2013-08-20 18:05:00,80.6,73.1,30.18,SSE,164,0.0,2.0,78,0.00,,---,0.01,VWS V14.01,2013-08-20 22:05:00,
2013-08-20 18:10:00,80.3,72.4,30.17,SSE,163,0.0,2.0,77,0.00,,---,0.01,VWS V14.01,2013-08-20 22:10:00,
2013-08-20 18:15:00,80.1,72.2,30.18,SSE,154,0.0,0.0,77,0.00,,---,0.01,VWS V14.01,2013-08-20 22:15:00,
2013-08-20 18:20:00,79.9,71.3,30.18,South,187,0.0,2.0,75,0.00,,---,0.01,VWS V14.01,2013-08-20 22:20:00,
2013-08-20 18:25:00,79.8,71.9,30.18,South,187,0.0,2.0,77,0.00,,---,0.01,VWS V14.01,2013-08-20 22:25:00,
2013-08-20 18:30:00,79.5,71.3,30.18,SE,140,0.0,1.0,76,0.00,,---,0.01,VWS V14.01,2013-08-20 22:30:00,
2013-08-20 18:35:00,79.3,71.8,30.18,SE,140,0.0,1.0,78,0.00,,---,0.01,VWS V14.01,2013-08-20 22:35:00,
2013-08-20 18:40:00,79.2,72.5,30.18,SE,140,0.0,1.0,80,0.00,,---,0.01,VWS V14.01,2013-08-20 22:40:00,
2013-08-20 18:45:00,79.1,72.4,30.18,SE,140,0.0,0.0,80,0.00,,---,0.01,VWS V14.01,2013-08-20 22:45:00,
2013-08-20 18:50:00,78.9,72.6,30.18,SE,140,0.0,0.0,81,0.00,,---,0.01,VWS V14.01,2013-08-20 22:50:00,
2013-08-20 18:55:00,78.6,72.7,30.18,SE,140,0.0,0.0,82,0.00,,---,0.01,VWS V14.01,2013-08-20 22:55:00,
2013-08-20 19:00:00,77.9,72.7,30.18,SE,140,0.0,0.0,84,0.00,,---,0.01,VWS V14.01,2013-08-20 23:00:00,
2013-08-20 19:05:00,77.5,72.6,30.18,SE,140,0.0,0.0,85,0.00,,---,0.01,VWS V14.01,2013-08-20 23:05:00,
2013-08-20 19:10:00,77.3,72.8,30.18,SE,140,0.0,0.0,86,0.00,,---,0.01,VWS V14.01,2013-08-20 23:10:00,
2013-08-20 19:15:00,76.7,72.5,30.18,SE,140,0.0,0.0,87,0.00,,---,0.01,VWS V14.01,2013-08-20 23:15:00,
2013-08-20 19:20:00,76.3,72.5,30.18,SE,140,0.0,0.0,88,0.00,,---,0.01,VWS V14.01,2013-08-20 23:20:00,
2013-08-20 19:25:00,75.8,72.3,30.19,SE,140,0.0,0.0,89,0.00,,---,0.01,VWS V14.01,2013-08-20 23:25:00,
2013-08-20 19:30:00,75.5,72.4,30.19,SE,140,0.0,0.0,90,0.00,,---,0.01,VWS V14.01,2013-08-20 23:30:00,
2013-08-20 19:35:00,75.3,72.2,30.19,SE,140,0.0,0.0,90,0.00,,---,0.01,VWS V14.01,2013-08-20 23:35:00,
2013-08-20 19:40:00,75.1,72.3,30.19,SE,140,0.0,0.0,91,0.00,,---,0.01,VWS V14.01,2013-08-20 23:40:00,
2013-08-20 19:45:00,75.0,72.2,30.19,SE,140,0.0,0.0,91,0.00,,---,0.01,VWS V14.01,2013-08-20 23:45:00,
2013-08-20 19:50:00,74.8,72.3,30.20,SE,140,0.0,0.0,92,0.00,,---,0.01,VWS V14.01,2013-08-20 23:50:00,
2013-08-20 19:55:00,74.6,72.1,30.20,SE,140,0.0,0.0,92,0.00,,---,0.01,VWS V14.01,2013-08-20 23:55:00,
2013-08-20 20:00:00,74.4,71.9,30.20,SE,140,0.0,0.0,92,0.00,,---,0.01,VWS V14.01,2013-08-21 00:00:00,
2013-08-20 20:05:00,74.2,71.7,30.20,SE,140,0.0,0.0,92,0.00,,---,0.01,VWS V14.01,2013-08-21 00:05:00,
2013-08-20 20:10:00,73.9,71.4,30.20,SE,140,0.0,0.0,92,0.00,,---,0.01,VWS V14.01,2013-08-21 00:10:00,
2013-08-20 20:15:00,73.7,71.6,30.20,SE,140,0.0,0.0,93,0.00,,---,0.01,VWS V14.01,2013-08-21 00:15:00,
2013-08-20 20:20:00,73.5,71.4,30.20,SE,140,0.0,0.0,93,0.00,,---,0.01,VWS V14.01,2013-08-21 00:20:00,
2013-08-20 20:25:00,73.3,71.2,30.20,SE,140,0.0,0.0,93,0.00,,---,0.01,VWS V14.01,2013-08-21 00:25:00,
2013-08-20 20:30:00,73.2,71.1,30.21,SE,140,0.0,0.0,93,0.00,,---,0.01,VWS V14.01,2013-08-21 00:30:00,
2013-08-20 20:35:00,73.0,71.2,30.21,SE,140,0.0,0.0,94,0.00,,---,0.01,VWS V14.01,2013-08-21 00:35:00,
2013-08-20 20:40:00,72.9,71.1,30.21,SE,140,0.0,0.0,94,0.00,,---,0.01,VWS V14.01,2013-08-21 00:40:00,
2013-08-20 20:45:00,72.8,71.0,30.21,SE,140,0.0,0.0,94,0.00,,---,0.01,VWS V14.01,2013-08-21 00:45:00,
2013-08-20 20:50:00,72.6,70.8,30.21,SE,140,0.0,0.0,94,0.00,,---,0.01,VWS V14.01,2013-08-21 00:50:00,
2013-08-20 20:55:00,72.5,70.7,30.21,SE,140,0.0,0.0,94,0.00,,---,0.01,VWS V14.01,2013-08-21 00:55:00,
2013-08-20 21:00:00,72.4,70.6,30.21,SE,140,0.0,0.0,94,0.00,,---,0.01,VWS V14.01,2013-08-21 01:00:00,
2013-08-20 21:05:00,72.2,70.7,30.21,SE,140,0.0,0.0,95,0.00,,---,0.01,VWS V14.01,2013-08-21 01:05:00,
2013-08-20 21:10:00,72.1,70.3,30.21,SE,140,0.0,0.0,94,0.00,,---,0.01,VWS V14.01,2013-08-21 01:10:00,
2013-08-20 21:15:00,72.0,70.2,30.21,SE,140,0.0,0.0,94,0.00,,---,0.01,VWS V14.01,2013-08-21 01:15:00,
2013-08-20 21:19:00,71.9,70.4,30.22,SE,140,0.0,0.0,95,0.00,,---,0.01,VWS V14.01,2013-08-21 01:19:00,
2013-08-20 21:24:00,71.7,70.2,30.22,SE,140,0.0,0.0,95,0.00,,---,0.01,VWS V14.01,2013-08-21 01:24:00,
2013-08-20 21:29:00,71.6,70.1,30.22,SE,140,0.0,0.0,95,0.00,,---,0.01,VWS V14.01,2013-08-21 01:29:00,
2013-08-20 21:34:00,71.4,69.9,30.22,SE,140,0.0,0.0,95,0.00,,---,0.01,VWS V14.01,2013-08-21 01:34:00,
2013-08-20 21:39:00,71.3,69.8,30.22,SE,140,0.0,0.0,95,0.00,,---,0.01,VWS V14.01,2013-08-21 01:39:00,
2013-08-20 21:44:00,71.3,69.8,30.23,SE,140,0.0,0.0,95,0.00,,---,0.01,VWS V14.01,2013-08-21 01:44:00,
2013-08-20 21:49:00,71.2,69.7,30.22,SE,140,0.0,0.0,95,0.00,,---,0.01,VWS V14.01,2013-08-21 01:49:00,
2013-08-20 21:54:00,71.0,69.5,30.22,SE,140,0.0,0.0,95,0.00,,---,0.01,VWS V14.01,2013-08-21 01:54:00,
2013-08-20 21:59:00,70.7,69.2,30.22,SE,140,0.0,0.0,95,0.00,,---,0.01,VWS V14.01,2013-08-21 01:59:00,
2013-08-20 22:04:00,70.6,69.1,30.22,SE,140,0.0,0.0,95,0.00,,---,0.01,VWS V14.01,2013-08-21 02:04:00,
2013-08-20 22:09:00,70.4,68.9,30.22,SE,140,0.0,0.0,95,0.00,,---,0.01,VWS V14.01,2013-08-21 02:09:00,
2013-08-20 22:14:00,70.3,69.1,30.22,SE,140,0.0,0.0,96,0.00,,---,0.01,VWS V14.01,2013-08-21 02:14:00,
2013-08-20 22:19:00,70.2,68.7,30.23,SE,140,0.0,0.0,95,0.00,,---,0.01,VWS V14.01,2013-08-21 02:19:00,
2013-08-20 22:24:00,70.0,68.5,30.23,SE,140,0.0,0.0,95,0.00,,---,0.01,VWS V14.01,2013-08-21 02:24:00,
2013-08-20 22:29:00,69.9,68.7,30.23,SE,140,0.0,0.0,96,0.00,,---,0.01,VWS V14.01,2013-08-21 02:29:00,
2013-08-20 22:34:00,69.9,68.7,30.23,SE,140,0.0,1.0,96,0.00,,---,0.01,VWS V14.01,2013-08-21 02:34:00,
2013-08-20 22:39:00,69.8,68.6,30.22,SE,140,0.0,1.0,96,0.00,,---,0.01,VWS V14.01,2013-08-21 02:39:00,
2013-08-20 22:44:00,69.5,68.3,30.22,SE,140,0.0,1.0,96,0.00,,---,0.01,VWS V14.01,2013-08-21 02:44:00,
2013-08-20 22:49:00,69.4,68.2,30.22,SE,140,0.0,0.0,96,0.00,,---,0.01,VWS V14.01,2013-08-21 02:49:00,
2013-08-20 22:54:00,69.4,68.2,30.22,SE,140,0.0,0.0,96,0.00,,---,0.01,VWS V14.01,2013-08-21 02:54:00,
2013-08-20 22:59:00,69.3,68.1,30.22,SE,140,0.0,0.0,96,0.00,,---,0.01,VWS V14.01,2013-08-21 02:59:00,
2013-08-20 23:04:00,69.0,67.8,30.22,SE,140,0.0,0.0,96,0.00,,---,0.01,VWS V14.01,2013-08-21 03:04:00,
2013-08-20 23:09:00,68.9,67.7,30.22,SE,140,0.0,0.0,96,0.00,,---,0.01,VWS V14.01,2013-08-21 03:09:00,
2013-08-20 23:14:00,69.0,67.8,30.22,SE,140,0.0,0.0,96,0.00,,---,0.01,VWS V14.01,2013-08-21 03:14:00,
2013-08-20 23:19:00,69.0,67.8,30.22,SE,140,0.0,0.0,96,0.00,,---,0.01,VWS V14.01,2013-08-21 03:19:00,
2013-08-20 23:24:00,68.8,67.6,30.23,SE,140,0.0,0.0,96,0.00,,---,0.01,VWS V14.01,2013-08-21 03:24:00,
2013-08-20 23:29:00,68.6,67.4,30.23,SE,140,0.0,0.0,96,0.00,,---,0.01,VWS V14.01,2013-08-21 03:29:00,
2013-08-20 23:34:00,68.5,67.3,30.23,SE,140,0.0,0.0,96,0.00,,---,0.01,VWS V14.01,2013-08-21 03:34:00,
2013-08-20 23:39:00,68.4,67.2,30.23,SE,140,0.0,0.0,96,0.00,,---,0.01,VWS V14.01,2013-08-21 03:39:00,
2013-08-20 23:44:00,68.4,67.5,30.23,SE,140,0.0,0.0,97,0.00,,---,0.01,VWS V14.01,2013-08-21 03:44:00,
2013-08-20 23:49:00,68.4,67.5,30.23,SE,140,0.0,0.0,97,0.00,,---,0.01,VWS V14.01,2013-08-21 03:49:00,
2013-08-20 23:54:00,68.3,67.1,30.23,SE,140,0.0,0.0,96,0.00,,---,0.01,VWS V14.01,2013-08-21 03:54:00,
2013-08-20 23:59:00,68.1,66.9,30.23,SE,140,0.0,0.0,96,0.00,,---,0.01,VWS V14.01,2013-08-21 03:59:00,